Time,TemperatureF,DewpointF,PressureIn,WindDirection,WindDirectionDegrees,WindSpeedMPH,WindSpeedGustMPH,Humidity,HourlyPrecipIn,Conditions,Clouds,dailyrainin,SolarRadiationWatts/m^2,SoftwareType,DateUTC
2013-06-08 00:04:00,64.1,42.9,29.69,WSW,239,14.0,31.0,46,0.00,,,0.00,0,Wunderground v.1.15,2013-06-08 06:04:00,
2013-06-08 00:14:00,63.8,42.6,29.70,SW,231,13.0,31.0,46,0.00,,,0.00,0,Wunderground v.1.15,2013-06-08 06:14:00,
2013-06-08 00:20:00,63.4,41.1,29.70,SW,223,11.0,31.0,44,0.00,,,0.00,0,Wunderground v.1.15,2013-06-08 06:20:00,
2013-06-08 00:26:00,63.0,40.1,29.71,SW,221,10.0,31.0,43,0.00,,,0.00,0,Wunderground v.1.15,2013-06-08 06:26:00,
2013-06-08 00:32:00,62.7,40.5,29.71,SW,233,9.0,31.0,44,0.00,,,0.00,0,Wunderground v.1.15,2013-06-08 06:32:00,
2013-06-08 00:38:00,62.7,39.9,29.71,SSW,202,10.0,31.0,43,0.00,,,0.00,0,Wunderground v.1.15,2013-06-08 06:38:00,
2013-06-08 00:44:00,62.6,40.4,29.71,South,187,12.0,31.0,44,0.00,,,0.00,0,Wunderground v.1.15,2013-06-08 06:44:00,
2013-06-08 00:50:00,62.7,41.0,29.71,SSW,192,11.0,31.0,45,0.00,,,0.00,0,Wunderground v.1.15,2013-06-08 06:50:00,
2013-06-08 00:56:00,62.5,42.5,29.71,South,191,10.0,31.0,48,0.00,,,0.00,0,Wunderground v.1.15,2013-06-08 06:56:00,
2013-06-08 01:02:00,62.4,40.2,29.71,SSW,200,9.0,10.0,44,0.00,,,0.00,0,Wunderground v.1.15,2013-06-08 07:02:00,
2013-06-08 01:08:00,62.3,40.7,29.71,SSW,193,9.0,31.0,45,0.00,,,0.00,0,Wunderground v.1.15,2013-06-08 07:08:00,
2013-06-08 01:14:00,62.6,39.2,29.71,SSW,212,10.0,31.0,42,0.00,,,0.00,0,Wunderground v.1.15,2013-06-08 07:14:00,
2013-06-08 01:20:00,62.7,39.3,29.71,SSW,205,10.0,10.0,42,0.00,,,0.00,0,Wunderground v.1.15,2013-06-08 07:20:00,
2013-06-08 01:26:00,62.6,41.5,29.71,South,188,10.0,31.0,46,0.00,,,0.00,0,Wunderground v.1.15,2013-06-08 07:26:00,
2013-06-08 01:32:00,63.1,40.2,29.71,SSW,197,10.0,31.0,43,0.00,,,0.00,0,Wunderground v.1.15,2013-06-08 07:32:00,
2013-06-08 01:38:00,63.1,42.0,29.71,South,188,9.0,31.0,46,0.00,,,0.00,0,Wunderground v.1.15,2013-06-08 07:38:00,
2013-06-08 01:44:00,62.9,40.6,29.71,SSW,212,8.0,31.0,44,0.00,,,0.00,0,Wunderground v.1.15,2013-06-08 07:44:00,
2013-06-08 01:50:00,63.0,40.7,29.71,SSW,208,9.0,31.0,44,0.00,,,0.00,0,Wunderground v.1.15,2013-06-08 07:50:00,
2013-06-08 01:56:00,63.1,40.8,29.71,SSW,204,9.0,31.0,44,0.00,,,0.00,0,Wunderground v.1.15,2013-06-08 07:56:00,
2013-06-08 02:02:00,62.9,41.2,29.71,SSW,199,9.0,16.0,45,0.00,,,0.00,0,Wunderground v.1.15,2013-06-08 08:02:00,
2013-06-08 02:08:00,62.6,43.2,29.71,SSW,192,8.0,16.0,49,0.00,,,0.00,0,Wunderground v.1.15,2013-06-08 08:08:00,
2013-06-08 02:14:00,61.9,43.6,29.71,South,170,7.0,16.0,51,0.00,,,0.00,0,Wunderground v.1.15,2013-06-08 08:14:00,
2013-06-08 02:20:00,61.3,43.5,29.71,SSE,166,8.0,8.0,52,0.00,,,0.00,0,Wunderground v.1.15,2013-06-08 08:20:00,
2013-06-08 02:26:00,61.3,43.5,29.71,SW,234,7.0,16.0,52,0.00,,,0.00,0,Wunderground v.1.15,2013-06-08 08:26:00,
2013-06-08 02:32:00,61.3,43.0,29.71,SW,219,6.0,16.0,51,0.00,,,0.00,0,Wunderground v.1.15,2013-06-08 08:32:00,
2013-06-08 02:38:00,60.9,42.6,29.72,SW,220,4.0,16.0,51,0.00,,,0.00,0,Wunderground v.1.15,2013-06-08 08:38:00,
2013-06-08 02:44:00,60.4,43.2,29.72,WSW,251,3.0,16.0,53,0.00,,,0.00,0,Wunderground v.1.15,2013-06-08 08:44:00,
2013-06-08 02:50:00,59.8,43.1,29.72,WSW,251,2.0,16.0,54,0.00,,,0.00,0,Wunderground v.1.15,2013-06-08 08:50:00,
2013-06-08 02:56:00,59.5,41.9,29.72,NE,56,2.0,16.0,52,0.00,,,0.00,0,Wunderground v.1.15,2013-06-08 08:56:00,
2013-06-08 03:02:00,59.4,41.8,29.72,North,4,2.0,16.0,52,0.00,,,0.00,0,Wunderground v.1.15,2013-06-08 09:02:00,
2013-06-08 03:08:00,59.5,41.3,29.72,SW,219,3.0,16.0,51,0.00,,,0.00,0,Wunderground v.1.15,2013-06-08 09:08:00,
2013-06-08 03:14:00,59.7,42.5,29.72,SW,232,5.0,16.0,53,0.00,,,0.00,0,Wunderground v.1.15,2013-06-08 09:14:00,
2013-06-08 03:20:00,59.5,41.3,29.72,SW,223,6.0,6.0,51,0.00,,,0.00,0,Wunderground v.1.15,2013-06-08 09:20:00,
2013-06-08 03:26:00,59.1,42.0,29.72,WSW,255,4.0,16.0,53,0.00,,,0.00,0,Wunderground v.1.15,2013-06-08 09:26:00,
2013-06-08 03:32:00,58.8,41.7,29.72,West,259,4.0,16.0,53,0.00,,,0.00,0,Wunderground v.1.15,2013-06-08 09:32:00,
2013-06-08 03:38:00,58.8,40.7,29.72,SW,235,5.0,16.0,51,0.00,,,0.00,0,Wunderground v.1.15,2013-06-08 09:38:00,
2013-06-08 03:44:00,58.7,41.6,29.72,WSW,246,4.0,16.0,53,0.00,,,0.00,0,Wunderground v.1.15,2013-06-08 09:44:00,
2013-06-08 03:50:00,58.2,41.6,29.73,WSW,239,5.0,5.0,54,0.00,,,0.00,0,Wunderground v.1.15,2013-06-08 09:50:00,
2013-06-08 03:56:00,58.1,41.5,29.73,West,275,5.0,16.0,54,0.00,,,0.00,0,Wunderground v.1.15,2013-06-08 09:56:00,
2013-06-08 04:02:00,58.1,44.7,29.73,West,270,4.0,16.0,61,0.00,,,0.00,0,Wunderground v.1.15,2013-06-08 10:02:00,
2013-06-08 04:08:00,58.0,43.7,29.73,West,265,4.0,16.0,59,0.00,,,0.00,0,Wunderground v.1.15,2013-06-08 10:08:00,
2013-06-08 04:14:00,57.8,42.7,29.73,WSW,241,3.0,16.0,57,0.00,,,0.00,0,Wunderground v.1.15,2013-06-08 10:14:00,
2013-06-08 04:20:00,57.8,41.3,29.73,WSW,240,4.0,16.0,54,0.00,,,0.00,0,Wunderground v.1.15,2013-06-08 10:20:00,
2013-06-08 04:26:00,57.5,41.0,29.73,SSW,204,5.0,16.0,54,0.00,,,0.00,0,Wunderground v.1.15,2013-06-08 10:26:00,
2013-06-08 04:32:00,57.6,41.5,29.73,SW,231,6.0,16.0,55,0.00,,,0.00,0,Wunderground v.1.15,2013-06-08 10:32:00,
2013-06-08 04:38:00,57.7,40.2,29.74,SW,234,7.0,16.0,52,0.00,,,0.00,0,Wunderground v.1.15,2013-06-08 10:38:00,
2013-06-08 04:44:00,58.0,40.5,29.74,SW,222,7.0,16.0,52,0.00,,,0.00,0,Wunderground v.1.15,2013-06-08 10:44:00,
2013-06-08 04:50:00,57.9,39.9,29.74,SSW,194,7.0,16.0,51,0.00,,,0.00,0,Wunderground v.1.15,2013-06-08 10:50:00,
2013-06-08 04:56:00,57.9,41.3,29.75,SSW,197,6.0,16.0,54,0.00,,,0.00,0,Wunderground v.1.15,2013-06-08 10:56:00,
2013-06-08 05:02:00,57.9,41.3,29.75,SSW,204,6.0,16.0,54,0.00,,,0.00,0,Wunderground v.1.15,2013-06-08 11:02:00,
2013-06-08 05:08:00,57.8,40.3,29.75,SSW,206,6.0,16.0,52,0.00,,,0.00,0,Wunderground v.1.15,2013-06-08 11:08:00,
2013-06-08 05:14:00,57.8,43.6,29.75,SSE,159,5.0,16.0,59,0.00,,,0.00,0,Wunderground v.1.15,2013-06-08 11:14:00,
2013-06-08 05:22:00,57.8,41.3,29.75,ESE,114,4.0,16.0,54,0.00,,,0.00,0,Wunderground v.1.15,2013-06-08 11:22:00,
2013-06-08 05:28:00,57.4,42.3,29.75,ENE,71,3.0,16.0,57,0.00,,,0.00,0,Wunderground v.1.15,2013-06-08 11:28:00,
2013-06-08 05:34:00,57.1,42.0,29.76,ENE,72,1.0,16.0,57,0.00,,,0.00,0,Wunderground v.1.15,2013-06-08 11:34:00,
2013-06-08 05:40:00,56.9,42.7,29.76,ENE,72,1.0,1.0,59,0.00,,,0.00,0,Wunderground v.1.15,2013-06-08 11:40:00,
2013-06-08 05:46:00,56.8,43.1,29.76,East,83,1.0,16.0,60,0.00,,,0.00,0,Wunderground v.1.15,2013-06-08 11:46:00,
2013-06-08 05:52:00,56.7,42.5,29.77,NE,50,4.0,16.0,59,0.00,,,0.00,7,Wunderground v.1.15,2013-06-08 11:52:00,
2013-06-08 05:58:00,56.5,41.9,29.77,ENE,64,6.0,16.0,58,0.00,,,0.00,9,Wunderground v.1.15,2013-06-08 11:58:00,
2013-06-08 06:04:00,56.4,41.8,29.77,ENE,60,6.0,16.0,58,0.00,,,0.00,11,Wunderground v.1.15,2013-06-08 12:04:00,
2013-06-08 06:10:00,56.8,41.3,29.77,East,81,6.0,16.0,56,0.00,,,0.00,12,Wunderground v.1.15,2013-06-08 12:10:00,
2013-06-08 06:16:00,57.2,42.5,29.76,ESE,114,6.0,16.0,58,0.00,,,0.00,14,Wunderground v.1.15,2013-06-08 12:16:00,
2013-06-08 06:22:00,57.7,41.2,29.77,ESE,114,7.0,16.0,54,0.00,,,0.00,16,Wunderground v.1.15,2013-06-08 12:22:00,
2013-06-08 06:28:00,58.1,39.5,29.77,SE,138,7.0,16.0,50,0.00,,,0.00,16,Wunderground v.1.15,2013-06-08 12:28:00,
2013-06-08 06:34:00,58.0,40.0,29.77,SE,141,9.0,16.0,51,0.00,,,0.00,18,Wunderground v.1.15,2013-06-08 12:34:00,
2013-06-08 06:40:00,57.8,40.8,29.77,SE,144,9.0,16.0,53,0.00,,,0.00,19,Wunderground v.1.15,2013-06-08 12:40:00,
2013-06-08 06:46:00,57.9,39.9,29.77,SSE,151,10.0,16.0,51,0.00,,,0.00,19,Wunderground v.1.15,2013-06-08 12:46:00,
2013-06-08 06:52:00,58.0,39.5,29.78,SSE,157,9.0,10.0,50,0.00,,,0.00,21,Wunderground v.1.15,2013-06-08 12:52:00,
2013-06-08 06:58:00,58.2,39.6,29.78,SSE,164,9.0,16.0,50,0.00,,,0.00,21,Wunderground v.1.15,2013-06-08 12:58:00,
2013-06-08 07:04:00,58.2,40.1,29.79,South,170,9.0,16.0,51,0.00,,,0.00,23,Wunderground v.1.15,2013-06-08 13:04:00,
2013-06-08 07:10:00,58.3,37.6,29.79,South,178,11.0,16.0,46,0.00,,,0.00,23,Wunderground v.1.15,2013-06-08 13:10:00,
2013-06-08 07:16:00,58.6,37.9,29.79,South,177,12.0,16.0,46,0.00,,,0.00,23,Wunderground v.1.15,2013-06-08 13:16:00,
2013-06-08 07:22:00,58.6,37.9,29.79,South,172,10.0,16.0,46,0.00,,,0.00,25,Wunderground v.1.15,2013-06-08 13:22:00,
2013-06-08 07:28:00,58.6,35.6,29.79,SSE,162,11.0,17.0,42,0.00,,,0.00,25,Wunderground v.1.15,2013-06-08 13:28:00,
2013-06-08 07:34:00,58.8,36.3,29.79,SSE,152,15.0,20.0,43,0.00,,,0.00,25,Wunderground v.1.15,2013-06-08 13:34:00,
2013-06-08 07:40:00,59.0,36.5,29.79,SSE,160,16.0,16.0,43,0.00,,,0.00,25,Wunderground v.1.15,2013-06-08 13:40:00,
2013-06-08 07:46:00,59.1,36.6,29.79,SSE,164,15.0,16.0,43,0.00,,,0.00,26,Wunderground v.1.15,2013-06-08 13:46:00,
2013-06-08 07:52:00,59.2,36.1,29.79,SSE,154,15.0,17.0,42,0.00,,,0.00,26,Wunderground v.1.15,2013-06-08 13:52:00,
2013-06-08 07:58:00,59.3,36.8,29.79,SSE,152,17.0,18.0,43,0.00,,,0.00,26,Wunderground v.1.15,2013-06-08 13:58:00,
2013-06-08 08:04:00,59.4,35.1,29.79,SSE,154,17.0,18.0,40,0.00,,,0.00,28,Wunderground v.1.15,2013-06-08 14:04:00,
2013-06-08 08:10:00,59.5,33.9,29.79,SSE,158,18.0,18.0,38,0.00,,,0.00,28,Wunderground v.1.15,2013-06-08 14:10:00,
2013-06-08 08:16:00,59.5,36.4,29.79,SE,142,19.0,23.0,42,0.00,,,0.00,62,Wunderground v.1.15,2013-06-08 14:16:00,
2013-06-08 08:22:00,59.6,37.1,29.79,SSE,151,19.0,20.0,43,0.00,,,0.00,178,Wunderground v.1.15,2013-06-08 14:22:00,
2013-06-08 08:28:00,59.7,35.3,29.79,SSE,154,18.0,20.0,40,0.00,,,0.00,330,Wunderground v.1.15,2013-06-08 14:28:00,
2013-06-08 08:34:00,59.9,33.5,29.79,SE,146,19.0,22.0,37,0.00,,,0.00,413,Wunderground v.1.15,2013-06-08 14:34:00,
2013-06-08 08:40:00,59.9,34.9,29.79,SSE,154,22.0,22.0,39,0.00,,,0.00,436,Wunderground v.1.15,2013-06-08 14:40:00,
2013-06-08 08:46:00,60.0,34.3,29.79,SE,142,21.0,22.0,38,0.00,,,0.00,455,Wunderground v.1.15,2013-06-08 14:46:00,
2013-06-08 08:52:00,60.1,35.7,29.79,SSE,157,19.0,19.0,40,0.00,,,0.00,469,Wunderground v.1.15,2013-06-08 14:52:00,
2013-06-08 08:58:00,60.2,33.8,29.78,SSE,158,18.0,21.0,37,0.00,,,0.00,489,Wunderground v.1.15,2013-06-08 14:58:00,
2013-06-08 09:04:00,60.4,34.0,29.78,SSE,152,17.0,18.0,37,0.00,,,0.00,503,Wunderground v.1.15,2013-06-08 15:04:00,
2013-06-08 09:10:00,60.5,35.4,29.79,SSE,154,17.0,17.0,39,0.00,,,0.00,520,Wunderground v.1.15,2013-06-08 15:10:00,
2013-06-08 09:18:00,60.8,31.5,29.78,SSE,160,16.0,21.0,33,0.00,,,0.00,543,Wunderground v.1.15,2013-06-08 15:18:00,
2013-06-08 09:26:00,60.9,33.7,29.79,SSE,155,15.0,19.0,36,0.00,,,0.00,566,Wunderground v.1.15,2013-06-08 15:26:00,
2013-06-08 09:32:00,61.1,34.6,29.79,SSE,160,14.0,16.0,37,0.00,,,0.00,582,Wunderground v.1.15,2013-06-08 15:32:00,
2013-06-08 09:38:00,61.2,31.8,29.79,SSE,158,15.0,16.0,33,0.00,,,0.00,599,Wunderground v.1.15,2013-06-08 15:38:00,
2013-06-08 09:44:00,61.3,31.9,29.78,SSE,149,16.0,16.0,33,0.00,,,0.00,615,Wunderground v.1.15,2013-06-08 15:44:00,
2013-06-08 09:50:00,61.5,31.3,29.79,SSE,147,15.0,15.0,32,0.00,,,0.00,629,Wunderground v.1.15,2013-06-08 15:50:00,
2013-06-08 09:56:00,61.6,32.2,29.79,SSE,162,15.0,16.0,33,0.00,,,0.00,643,Wunderground v.1.15,2013-06-08 15:56:00,
2013-06-08 10:02:00,61.9,33.9,29.79,South,180,15.0,16.0,35,0.00,,,0.00,659,Wunderground v.1.15,2013-06-08 16:02:00,
2013-06-08 10:08:00,62.1,31.1,29.78,SSE,165,15.0,16.0,31,0.00,,,0.00,673,Wunderground v.1.15,2013-06-08 16:08:00,
2013-06-08 10:14:00,62.3,35.7,29.78,SSE,151,14.0,18.0,37,0.00,,,0.00,689,Wunderground v.1.15,2013-06-08 16:14:00,
2013-06-08 10:20:00,62.6,31.5,29.78,South,172,14.0,18.0,31,0.00,,,0.00,701,Wunderground v.1.15,2013-06-08 16:20:00,
2013-06-08 10:30:00,62.9,36.2,29.78,SSE,156,15.0,17.0,37,0.00,,,0.00,724,Wunderground v.1.15,2013-06-08 16:30:00,
2013-06-08 10:38:00,63.1,29.4,29.78,SE,141,14.0,17.0,28,0.00,,,0.00,742,Wunderground v.1.15,2013-06-08 16:38:00,
2013-06-08 10:44:00,63.2,34.3,29.77,SE,145,14.0,18.0,34,0.00,,,0.00,752,Wunderground v.1.15,2013-06-08 16:44:00,
2013-06-08 10:50:00,63.4,30.6,29.77,SE,143,16.0,17.0,29,0.00,,,0.00,765,Wunderground v.1.15,2013-06-08 16:50:00,
2013-06-08 10:56:00,63.6,29.0,29.77,SSE,154,16.0,17.0,27,0.00,,,0.00,779,Wunderground v.1.15,2013-06-08 16:56:00,
2013-06-08 11:02:00,63.8,30.9,29.77,SSE,152,13.0,17.0,29,0.00,,,0.00,788,Wunderground v.1.15,2013-06-08 17:02:00,
2013-06-08 11:08:00,64.0,33.5,29.77,SE,143,13.0,22.0,32,0.00,,,0.00,800,Wunderground v.1.15,2013-06-08 17:08:00,
2013-06-08 11:14:00,64.1,31.2,29.76,SSE,147,14.0,22.0,29,0.00,,,0.00,812,Wunderground v.1.15,2013-06-08 17:14:00,
2013-06-08 11:20:00,64.4,36.8,29.77,SSE,164,14.0,14.0,36,0.00,,,0.00,824,Wunderground v.1.15,2013-06-08 17:20:00,
2013-06-08 11:26:00,64.4,29.7,29.77,SE,127,11.0,22.0,27,0.00,,,0.00,835,Wunderground v.1.15,2013-06-08 17:26:00,
2013-06-08 11:32:00,64.8,29.1,29.77,SE,143,11.0,14.0,26,0.00,,,0.00,844,Wunderground v.1.15,2013-06-08 17:32:00,
2013-06-08 11:38:00,65.0,29.2,29.77,SSE,154,11.0,22.0,26,0.00,,,0.00,858,Wunderground v.1.15,2013-06-08 17:38:00,
2013-06-08 11:44:00,65.4,35.5,29.77,SE,127,11.0,22.0,33,0.00,,,0.00,867,Wunderground v.1.15,2013-06-08 17:44:00,
2013-06-08 11:50:00,65.4,27.6,29.76,ESE,121,11.0,11.0,24,0.00,,,0.00,877,Wunderground v.1.15,2013-06-08 17:50:00,
2013-06-08 11:56:00,65.6,29.8,29.76,ESE,117,10.0,22.0,26,0.00,,,0.00,891,Wunderground v.1.15,2013-06-08 17:56:00,
2013-06-08 12:02:00,66.1,30.2,29.76,SE,145,9.0,22.0,26,0.00,,,0.00,898,Wunderground v.1.15,2013-06-08 18:02:00,
2013-06-08 12:08:00,66.5,29.6,29.76,South,174,6.0,22.0,25,0.00,,,0.00,909,Wunderground v.1.15,2013-06-08 18:08:00,
2013-06-08 12:14:00,66.7,28.7,29.76,SSE,167,6.0,22.0,24,0.00,,,0.00,923,Wunderground v.1.15,2013-06-08 18:14:00,
2013-06-08 12:20:00,66.8,29.8,29.76,South,179,8.0,22.0,25,0.00,,,0.00,932,Wunderground v.1.15,2013-06-08 18:20:00,
2013-06-08 12:26:00,66.8,28.8,29.76,SE,143,12.0,22.0,24,0.00,,,0.00,939,Wunderground v.1.15,2013-06-08 18:26:00,
2013-06-08 12:32:00,67.0,27.9,29.76,SE,141,10.0,22.0,23,0.00,,,0.00,944,Wunderground v.1.15,2013-06-08 18:32:00,
2013-06-08 12:38:00,67.7,30.6,29.75,ESE,112,5.0,22.0,25,0.00,,,0.00,947,Wunderground v.1.15,2013-06-08 18:38:00,
2013-06-08 12:44:00,68.4,29.1,29.75,South,179,4.0,22.0,23,0.00,,,0.00,940,Wunderground v.1.15,2013-06-08 18:44:00,
2013-06-08 12:50:00,68.4,33.1,29.75,SE,137,8.0,22.0,27,0.00,,,0.00,935,Wunderground v.1.15,2013-06-08 18:50:00,
2013-06-08 12:56:00,68.1,28.9,29.74,ESE,108,12.0,22.0,23,0.00,,,0.00,933,Wunderground v.1.15,2013-06-08 18:56:00,
2013-06-08 13:02:00,68.2,29.0,29.75,SSE,164,15.0,22.0,23,0.00,,,0.00,935,Wunderground v.1.15,2013-06-08 19:02:00,
2013-06-08 13:08:00,68.5,29.2,29.75,SSW,211,11.0,22.0,23,0.00,,,0.00,933,Wunderground v.1.15,2013-06-08 19:08:00,
2013-06-08 13:18:00,69.2,31.9,29.74,ESE,122,7.0,22.0,25,0.00,,,0.00,932,Wunderground v.1.15,2013-06-08 19:18:00,
2013-06-08 13:24:00,69.0,29.6,29.75,SW,231,8.0,22.0,23,0.00,,,0.00,928,Wunderground v.1.15,2013-06-08 19:24:00,
2013-06-08 13:30:00,69.3,29.9,29.74,WNW,285,7.0,22.0,23,0.00,,,0.00,928,Wunderground v.1.15,2013-06-08 19:30:00,
2013-06-08 13:40:00,69.1,32.7,29.74,West,275,8.0,8.0,26,0.00,,,0.00,947,Wunderground v.1.15,2013-06-08 19:40:00,
2013-06-08 13:46:00,69.1,29.7,29.74,SSW,192,9.0,22.0,23,0.00,,,0.00,933,Wunderground v.1.15,2013-06-08 19:46:00,
2013-06-08 13:52:00,69.5,33.1,29.74,West,259,6.0,22.0,26,0.00,,,0.00,925,Wunderground v.1.15,2013-06-08 19:52:00,
2013-06-08 13:58:00,69.8,32.4,29.74,SSW,207,5.0,22.0,25,0.00,,,0.00,925,Wunderground v.1.15,2013-06-08 19:58:00,
2013-06-08 14:04:00,70.0,30.5,29.74,WNW,294,5.0,22.0,23,0.00,,,0.00,923,Wunderground v.1.15,2013-06-08 20:04:00,
2013-06-08 14:10:00,70.2,35.5,29.73,WNW,285,5.0,22.0,28,0.00,,,0.00,919,Wunderground v.1.15,2013-06-08 20:10:00,
2013-06-08 14:16:00,70.2,31.7,29.74,West,275,8.0,22.0,24,0.00,,,0.00,914,Wunderground v.1.15,2013-06-08 20:16:00,
2013-06-08 14:22:00,70.1,32.6,29.73,West,266,7.0,22.0,25,0.00,,,0.00,912,Wunderground v.1.15,2013-06-08 20:22:00,
2013-06-08 14:28:00,70.1,32.6,29.73,West,266,8.0,22.0,25,0.00,,,0.00,909,Wunderground v.1.15,2013-06-08 20:28:00,
2013-06-08 14:34:00,70.3,34.7,29.73,WSW,242,7.0,22.0,27,0.00,,,0.00,907,Wunderground v.1.15,2013-06-08 20:34:00,
2013-06-08 14:40:00,70.4,31.9,29.73,West,269,6.0,22.0,24,0.00,,,0.00,904,Wunderground v.1.15,2013-06-08 20:40:00,
2013-06-08 14:46:00,70.3,31.8,29.74,West,270,7.0,22.0,24,0.00,,,0.00,898,Wunderground v.1.15,2013-06-08 20:46:00,
2013-06-08 14:52:00,70.1,34.5,29.74,WSW,243,9.0,22.0,27,0.00,,,0.00,889,Wunderground v.1.15,2013-06-08 20:52:00,
2013-06-08 15:00:00,69.9,37.0,29.73,West,269,11.0,13.0,30,0.00,,,0.00,879,Wunderground v.1.15,2013-06-08 21:00:00,
2013-06-08 15:06:00,70.4,40.7,29.73,West,275,11.0,13.0,34,0.00,,,0.00,874,Wunderground v.1.15,2013-06-08 21:06:00,
2013-06-08 15:12:00,70.3,36.5,29.73,WNW,289,12.0,13.0,29,0.00,,,0.00,867,Wunderground v.1.15,2013-06-08 21:12:00,
2013-06-08 15:18:00,70.5,33.9,29.73,West,280,12.0,13.0,26,0.00,,,0.00,860,Wunderground v.1.15,2013-06-08 21:18:00,
2013-06-08 15:24:00,70.6,33.0,29.73,WNW,285,12.0,14.0,25,0.00,,,0.00,851,Wunderground v.1.15,2013-06-08 21:24:00,
2013-06-08 15:30:00,70.9,37.0,29.73,West,275,12.0,14.0,29,0.00,,,0.00,838,Wunderground v.1.15,2013-06-08 21:30:00,
2013-06-08 15:36:00,71.0,33.4,29.73,WNW,291,12.0,14.0,25,0.00,,,0.00,828,Wunderground v.1.15,2013-06-08 21:36:00,
2013-06-08 15:42:00,71.2,32.5,29.72,WNW,285,11.0,13.0,24,0.00,,,0.00,817,Wunderground v.1.15,2013-06-08 21:42:00,
2013-06-08 15:48:00,71.4,38.3,29.72,West,275,10.0,13.0,30,0.00,,,0.00,812,Wunderground v.1.15,2013-06-08 21:48:00,
2013-06-08 15:54:00,71.5,33.8,29.72,West,269,10.0,13.0,25,0.00,,,0.00,798,Wunderground v.1.15,2013-06-08 21:54:00,
2013-06-08 16:00:00,71.9,36.1,29.72,West,280,10.0,13.0,27,0.00,,,0.00,788,Wunderground v.1.15,2013-06-08 22:00:00,
2013-06-08 16:06:00,72.3,34.5,29.72,West,280,9.0,13.0,25,0.00,,,0.00,773,Wunderground v.1.15,2013-06-08 22:06:00,
2013-06-08 16:12:00,72.1,34.3,29.72,West,259,8.0,13.0,25,0.00,,,0.00,765,Wunderground v.1.15,2013-06-08 22:12:00,
2013-06-08 16:18:00,72.4,37.4,29.72,West,275,9.0,13.0,28,0.00,,,0.00,751,Wunderground v.1.15,2013-06-08 22:18:00,
2013-06-08 16:24:00,72.7,34.8,29.72,WNW,285,9.0,13.0,25,0.00,,,0.00,737,Wunderground v.1.15,2013-06-08 22:24:00,
2013-06-08 16:30:00,72.8,35.9,29.72,WNW,285,7.0,13.0,26,0.00,,,0.00,728,Wunderground v.1.15,2013-06-08 22:30:00,
2013-06-08 16:36:00,72.5,36.6,29.72,WNW,285,10.0,13.0,27,0.00,,,0.00,712,Wunderground v.1.15,2013-06-08 22:36:00,
2013-06-08 16:42:00,72.6,34.7,29.72,West,260,9.0,13.0,25,0.00,,,0.00,707,Wunderground v.1.15,2013-06-08 22:42:00,
2013-06-08 16:48:00,72.8,35.9,29.72,WSW,258,6.0,13.0,26,0.00,,,0.00,686,Wunderground v.1.15,2013-06-08 22:48:00,
2013-06-08 16:54:00,72.8,33.9,29.72,SW,235,7.0,13.0,24,0.00,,,0.00,677,Wunderground v.1.15,2013-06-08 22:54:00,
2013-06-08 17:02:00,73.1,38.9,29.71,West,275,8.0,14.0,29,0.00,,,0.00,645,Wunderground v.1.15,2013-06-08 23:02:00,
2013-06-08 17:10:00,73.3,36.3,29.71,West,266,10.0,13.0,26,0.00,,,0.00,635,Wunderground v.1.15,2013-06-08 23:10:00,
2013-06-08 17:16:00,73.4,40.1,29.71,West,270,10.0,13.0,30,0.00,,,0.00,536,Wunderground v.1.15,2013-06-08 23:16:00,
2013-06-08 17:22:00,73.4,36.4,29.71,WNW,299,9.0,13.0,26,0.00,,,0.00,603,Wunderground v.1.15,2013-06-08 23:22:00,
2013-06-08 17:28:00,73.5,36.5,29.71,WNW,285,6.0,13.0,26,0.00,,,0.00,589,Wunderground v.1.15,2013-06-08 23:28:00,
2013-06-08 17:34:00,73.8,36.8,29.70,WSW,253,8.0,13.0,26,0.00,,,0.00,578,Wunderground v.1.15,2013-06-08 23:34:00,
2013-06-08 17:42:00,74.1,38.9,29.70,West,275,6.0,13.0,28,0.00,,,0.00,566,Wunderground v.1.15,2013-06-08 23:42:00,
2013-06-08 17:48:00,74.3,39.1,29.70,WSW,249,8.0,14.0,28,0.00,,,0.00,529,Wunderground v.1.15,2013-06-08 23:48:00,
2013-06-08 17:54:00,73.1,40.7,29.70,West,275,12.0,16.0,31,0.00,,,0.00,526,Wunderground v.1.15,2013-06-08 23:54:00,
2013-06-08 18:00:00,73.2,39.0,29.70,WNW,285,13.0,13.0,29,0.00,,,0.00,497,Wunderground v.1.15,2013-06-09 00:00:00,
2013-06-08 18:06:00,73.4,40.9,29.70,West,262,11.0,13.0,31,0.00,,,0.00,478,Wunderground v.1.15,2013-06-09 00:06:00,
2013-06-08 18:12:00,73.2,40.7,29.70,West,280,10.0,13.0,31,0.00,,,0.00,459,Wunderground v.1.15,2013-06-09 00:12:00,
2013-06-08 18:18:00,73.4,41.7,29.70,West,280,11.0,13.0,32,0.00,,,0.00,443,Wunderground v.1.15,2013-06-09 00:18:00,
2013-06-08 18:24:00,73.3,42.4,29.70,WSW,254,11.0,13.0,33,0.00,,,0.00,425,Wunderground v.1.15,2013-06-09 00:24:00,
2013-06-08 18:30:00,72.8,42.0,29.70,West,259,11.0,13.0,33,0.00,,,0.00,413,Wunderground v.1.15,2013-06-09 00:30:00,
2013-06-08 18:36:00,72.8,42.8,29.70,West,275,13.0,13.0,34,0.00,,,0.00,390,Wunderground v.1.15,2013-06-09 00:36:00,
2013-06-08 18:42:00,72.9,40.5,29.70,West,262,12.0,14.0,31,0.00,,,0.00,373,Wunderground v.1.15,2013-06-09 00:42:00,
2013-06-08 18:48:00,72.7,41.1,29.70,WNW,285,12.0,14.0,32,0.00,,,0.00,353,Wunderground v.1.15,2013-06-09 00:48:00,
2013-06-08 18:54:00,72.7,40.3,29.71,West,263,11.0,13.0,31,0.00,,,0.00,336,Wunderground v.1.15,2013-06-09 00:54:00,
2013-06-08 19:00:00,72.8,41.2,29.70,West,262,11.0,13.0,32,0.00,,,0.00,318,Wunderground v.1.15,2013-06-09 01:00:00,
2013-06-08 19:08:00,72.4,38.3,29.71,West,268,11.0,13.0,29,0.00,,,0.00,295,Wunderground v.1.15,2013-06-09 01:08:00,
2013-06-08 19:14:00,72.4,39.2,29.71,West,262,10.0,13.0,30,0.00,,,0.00,278,Wunderground v.1.15,2013-06-09 01:14:00,
2013-06-08 19:20:00,72.9,36.9,29.72,WSW,251,6.0,6.0,27,0.00,,,0.00,258,Wunderground v.1.15,2013-06-09 01:20:00,
2013-06-08 19:26:00,73.3,39.1,29.72,SSE,160,5.0,13.0,29,0.00,,,0.00,236,Wunderground v.1.15,2013-06-09 01:26:00,
2013-06-08 19:32:00,73.0,38.0,29.72,West,262,8.0,13.0,28,0.00,,,0.00,214,Wunderground v.1.15,2013-06-09 01:32:00,
2013-06-08 19:38:00,73.0,37.0,29.72,SW,228,8.0,13.0,27,0.00,,,0.00,197,Wunderground v.1.15,2013-06-09 01:38:00,
2013-06-08 19:44:00,73.1,40.7,29.72,SSW,196,8.0,13.0,31,0.00,,,0.00,174,Wunderground v.1.15,2013-06-09 01:44:00,
2013-06-08 19:52:00,72.9,36.0,29.72,SSE,160,13.0,15.0,26,0.00,,,0.00,151,Wunderground v.1.15,2013-06-09 01:52:00,
2013-06-08 19:58:00,72.9,36.9,29.72,SSE,158,17.0,23.0,27,0.00,,,0.00,130,Wunderground v.1.15,2013-06-09 01:58:00,
2013-06-08 20:04:00,72.7,34.8,29.72,SSE,158,21.0,25.0,25,0.00,,,0.00,113,Wunderground v.1.15,2013-06-09 02:04:00,
2013-06-08 20:10:00,72.6,34.7,29.72,SSE,155,22.0,24.0,25,0.00,,,0.00,95,Wunderground v.1.15,2013-06-09 02:10:00,
2013-06-08 20:16:00,72.2,36.3,29.72,SSE,153,21.0,24.0,27,0.00,,,0.00,79,Wunderground v.1.15,2013-06-09 02:16:00,
2013-06-08 20:22:00,72.0,35.2,29.72,South,170,18.0,19.0,26,0.00,,,0.00,63,Wunderground v.1.15,2013-06-09 02:22:00,
2013-06-08 20:28:00,72.0,34.2,29.72,SSE,158,18.0,19.0,25,0.00,,,0.00,49,Wunderground v.1.15,2013-06-09 02:28:00,
2013-06-08 20:34:00,71.8,36.0,29.72,South,169,17.0,19.0,27,0.00,,,0.00,39,Wunderground v.1.15,2013-06-09 02:34:00,
2013-06-08 20:40:00,71.7,34.0,29.73,SSE,161,16.0,18.0,25,0.00,,,0.00,26,Wunderground v.1.15,2013-06-09 02:40:00,
2013-06-08 20:46:00,71.7,36.8,29.73,SSE,160,17.0,18.0,28,0.00,,,0.00,19,Wunderground v.1.15,2013-06-09 02:46:00,
2013-06-08 20:52:00,71.2,32.5,29.73,SSE,164,15.0,16.0,24,0.00,,,0.00,16,Wunderground v.1.15,2013-06-09 02:52:00,
2013-06-08 20:58:00,71.0,35.3,29.73,SSE,161,14.0,18.0,27,0.00,,,0.00,12,Wunderground v.1.15,2013-06-09 02:58:00,
2013-06-08 21:04:00,70.5,34.9,29.73,SSE,167,13.0,16.0,27,0.00,,,0.00,11,Wunderground v.1.15,2013-06-09 03:04:00,
2013-06-08 21:10:00,70.2,34.6,29.73,SSE,158,13.0,13.0,27,0.00,,,0.00,7,Wunderground v.1.15,2013-06-09 03:10:00,
2013-06-08 21:16:00,69.9,33.4,29.73,SSE,164,13.0,16.0,26,0.00,,,0.00,5,Wunderground v.1.15,2013-06-09 03:16:00,
2013-06-08 21:22:00,69.8,34.3,29.73,SSE,160,13.0,16.0,27,0.00,,,0.00,0,Wunderground v.1.15,2013-06-09 03:22:00,
2013-06-08 21:28:00,69.5,34.0,29.74,SSE,153,11.0,16.0,27,0.00,,,0.00,0,Wunderground v.1.15,2013-06-09 03:28:00,
2013-06-08 21:34:00,69.1,33.7,29.74,SSE,156,10.0,16.0,27,0.00,,,0.00,0,Wunderground v.1.15,2013-06-09 03:34:00,
2013-06-08 21:40:00,69.0,34.5,29.74,SSE,164,11.0,16.0,28,0.00,,,0.00,0,Wunderground v.1.15,2013-06-09 03:40:00,
2013-06-08 21:46:00,69.2,33.8,29.75,SSE,155,11.0,16.0,27,0.00,,,0.00,0,Wunderground v.1.15,2013-06-09 03:46:00,
2013-06-08 21:54:00,69.1,33.7,29.75,SSE,159,11.0,16.0,27,0.00,,,0.00,0,Wunderground v.1.15,2013-06-09 03:54:00,
2013-06-08 22:00:00,69.1,33.7,29.75,SSE,152,13.0,13.0,27,0.00,,,0.00,0,Wunderground v.1.15,2013-06-09 04:00:00,
2013-06-08 22:02:00,68.7,36.0,29.75,SSE,155,12.0,16.0,30,0.00,,,0.00,0,Wunderground v.1.15,2013-06-09 04:02:00,
2013-06-08 22:04:00,68.5,35.0,29.75,SSE,159,12.0,16.0,29,0.00,,,0.00,0,Wunderground v.1.15,2013-06-09 04:04:00,
2013-06-08 22:08:00,68.1,36.3,29.75,SSE,151,10.0,16.0,31,0.00,,,0.00,0,Wunderground v.1.15,2013-06-09 04:08:00,
2013-06-08 22:14:00,68.0,37.0,29.76,SSE,149,11.0,16.0,32,0.00,,,0.00,0,Wunderground v.1.15,2013-06-09 04:14:00,
2013-06-08 22:16:00,67.9,34.4,29.76,SSE,156,11.0,16.0,29,0.00,,,0.00,0,Wunderground v.1.15,2013-06-09 04:16:00,
2013-06-08 22:22:00,67.7,39.0,29.77,WSW,247,9.0,16.0,35,0.00,,,0.00,0,Wunderground v.1.15,2013-06-09 04:22:00,
2013-06-08 22:26:00,66.7,35.9,29.77,West,260,7.0,16.0,32,0.00,,,0.00,0,Wunderground v.1.15,2013-06-09 04:26:00,
2013-06-08 22:32:00,66.2,36.2,29.77,SW,219,4.0,16.0,33,0.00,,,0.00,0,Wunderground v.1.15,2013-06-09 04:32:00,
2013-06-08 22:38:00,66.1,35.4,29.77,WSW,237,2.0,16.0,32,0.00,,,0.00,0,Wunderground v.1.15,2013-06-09 04:38:00,
2013-06-08 22:44:00,66.0,36.8,29.78,WSW,258,1.0,16.0,34,0.00,,,0.00,0,Wunderground v.1.15,2013-06-09 04:44:00,
2013-06-08 22:50:00,65.2,36.1,29.77,North,353,3.0,16.0,34,0.00,,,0.00,0,Wunderground v.1.15,2013-06-09 04:50:00,
2013-06-08 22:56:00,64.5,38.3,29.77,NNE,17,7.0,16.0,38,0.00,,,0.00,0,Wunderground v.1.15,2013-06-09 04:56:00,
2013-06-08 23:02:00,65.2,34.6,29.78,North,2,6.0,16.0,32,0.00,,,0.00,0,Wunderground v.1.15,2013-06-09 05:02:00,
2013-06-08 23:08:00,66.0,34.5,29.78,NW,306,6.0,16.0,31,0.00,,,0.00,0,Wunderground v.1.15,2013-06-09 05:08:00,
2013-06-08 23:14:00,65.2,37.6,29.78,North,349,4.0,16.0,36,0.00,,,0.00,0,Wunderground v.1.15,2013-06-09 05:14:00,
2013-06-08 23:20:00,64.9,40.0,29.78,ESE,110,4.0,16.0,40,0.00,,,0.00,0,Wunderground v.1.15,2013-06-09 05:20:00,
2013-06-08 23:26:00,65.1,34.5,29.78,SE,129,7.0,16.0,32,0.00,,,0.00,0,Wunderground v.1.15,2013-06-09 05:26:00,
2013-06-08 23:32:00,65.6,37.9,29.78,SSE,152,7.0,16.0,36,0.00,,,0.00,0,Wunderground v.1.15,2013-06-09 05:32:00,
2013-06-08 23:38:00,65.4,35.5,29.78,SSE,147,7.0,16.0,33,0.00,,,0.00,0,Wunderground v.1.15,2013-06-09 05:38:00,
2013-06-08 23:44:00,65.3,36.9,29.78,SE,137,6.0,16.0,35,0.00,,,0.00,0,Wunderground v.1.15,2013-06-09 05:44:00,
2013-06-08 23:50:00,64.7,39.2,29.78,SSE,154,6.0,16.0,39,0.00,,,0.00,0,Wunderground v.1.15,2013-06-09 05:50:00,
2013-06-08 23:56:00,64.2,38.0,29.78,SSE,150,6.0,16.0,38,0.00,,,0.00,0,Wunderground v.1.15,2013-06-09 05:56:00,